Location: Boiro
(42.6475°N, 8.8834°W)
Time: 18:52:18
(UTC+01:00)

Transit 2A Rocket - Pass Details

Date: 01 December 2021
Orbit: 585 x 917 km, 66.7° (Epoch: 26 January)

Event Time Altitude Azimuth Distance (km) Brightness Sun altitude
Rises 19:51:50 0° 318° (NW) 3,548 8.9 -19.5°
Reaches altitude 10° 19:54:50 10° 306° (NW) 2,579 8.3 -20.0°
Maximum altitude 19:59:32 25° 254° (WSW) 1,706 7.6 -20.9°
Drops below altitude 10° 20:04:02 10° 202° (SSW) 2,438 8.0 -21.7°
Sets 20:06:47 0° 188° (S) 3,311 8.5 -22.2°
